Location: Quedlinburg
(51.7921°N, 11.1414°E)
Time: 02:01:57
(UTC+02:00)

BEESAT - Pass Details

Date: 21 March 2026
Orbit: 683 x 693 km, 98.4° (Epoch: 13 April)

Event Time Altitude Azimuth Distance (km) Brightness Sun altitude
Rises 01:36:16 0° 4° (N) 3,065 ? -35.8°
Reaches altitude 10° 01:39:10 10° 345° (NNW) 2,143 ? -35.6°
Enters shadow 01:40:13 14° 334° (NNW) 1,899 ? -35.5°
